Fort Knox, KY

6:36 AM EDT on May 30, 2017 (GMT -0400)
Godman Army Air Field

Weather History for KFTK - March, 2013

Change the Weather History Date:

Wednesday, March 6, 2013

  Actual Average Record
Temperature  
Mean Temperature 30 °F -  
Max Temperature 32 °F 48 °F 68 °F (2012)
Min Temperature 29 °F 30 °F -1 °F (2015)
Degree Days  
Heating Degree Days 34    
Moisture  
Dew Point 27 °F    
Average Humidity 86    
Maximum Humidity 93    
Minimum Humidity 80    
Precipitation  
Precipitation 0.00 in - - ()
Sea Level Pressure  
Sea Level Pressure 30.11 in    
Wind  
Wind Speed 13 mph (WNW)    
Max Wind Speed 18 mph    
Max Gust Speed 33 mph    
Visibility 8 miles    
Events Snow    
Averages and records for this station are not official NWS values.
T = Trace of Precipitation, MM = Missing Value Source: NWS Daily Summary

Daily Weather History Graph

Daily Weather History Graph

Search for Another Location

Airport or City:

Trip Planner

Search our weather history database for the weather conditions in past years. The results will help you decide how hot, cold, wet, or windy it might be!

Date:

Astronomy

Mar. 06, 2013 Rise Set
Actual Time 7:07 AM EST 6:42 PM EST
Civil Twilight 6:41 AM EST 7:08 PM EST
Nautical Twilight 6:11 AM EST 7:39 PM EST
Astronomical Twilight 5:40 AM EST 8:09 PM EST
Moon 3:12 AM EST (3/6) 1:27 PM EST (3/6)
Length of Visible Light 12h 27m
Length of Day
11h 34m
Waning Crescent, 30% of the Moon is Illuminated
Mar 6
Waning Crescent
Mar 11
New
Mar 19
First Quarter
Mar 27
Full
Apr 3
Last Quarter

Hourly Weather History & Observations

Time (EST) Temp. Windchill Dew Point Humidity Pressure Visibility Wind Dir Wind Speed Gust Speed Precip Events Conditions
12:55 AM 29.7 °F 19.6 °F 26.2 °F 87% 29.85 in 8.0 mi West 12.7 mph 20.7 mph 0.00 in Snow Light Snow
1:55 AM 30.0 °F 18.3 °F 27.0 °F 88% 29.85 in 6.0 mi West 17.3 mph 23.0 mph 0.00 in Snow Light Snow
2:55 AM 30.2 °F 18.5 °F 27.1 °F 88% 29.85 in 6.0 mi West 17.3 mph 24.2 mph 0.00 in Snow Light Snow
3:16 AM 30.2 °F 19.3 °F 26.6 °F 86% 29.86 in 4.0 mi West 15.0 mph 24.2 mph N/A Snow Light Snow
3:24 AM 30.2 °F 18.1 °F 26.6 °F 86% 29.86 in 4.0 mi West 18.4 mph 24.2 mph N/A Snow Light Snow
3:55 AM 30.2 °F 19.8 °F 26.6 °F 86% 29.87 in 9.0 mi WNW 13.8 mph 33.4 mph 0.00 in Snow Light Snow
4:41 AM 30.2 °F 18.5 °F 26.6 °F 86% 29.91 in 4.0 mi West 17.3 mph 21.9 mph N/A Snow Light Snow
4:55 AM 30.2 °F 19.8 °F 27.7 °F 90% 29.91 in 5.0 mi West 13.8 mph - 0.00 in Snow Light Snow
5:00 AM 30.2 °F 19.3 °F 28.4 °F 93% 29.92 in 5.0 mi WNW 15.0 mph 20.7 mph N/A Snow Light Snow
5:06 AM 30.2 °F 19.3 °F 28.4 °F 93% 29.92 in 5.0 mi West 15.0 mph 21.9 mph N/A Snow Light Snow
5:33 AM 30.2 °F 19.3 °F 28.4 °F 93% 29.94 in 10.0 mi WNW 15.0 mph 20.7 mph N/A Snow Light Snow
5:39 AM 30.2 °F 19.8 °F 28.4 °F 93% 29.95 in 10.0 mi WNW 13.8 mph 20.7 mph N/A   Overcast
5:53 AM 30.2 °F 19.8 °F 26.6 °F 86% 29.95 in 10.0 mi WNW 13.8 mph 24.2 mph N/A Snow Light Snow
5:55 AM 30.6 °F 19.8 °F 27.3 °F 88% 29.95 in 10.0 mi WNW 15.0 mph - 0.00 in Snow Light Snow
6:13 AM 30.2 °F 20.2 °F 26.6 °F 86% 29.96 in 10.0 mi West 12.7 mph - N/A   Overcast
6:30 AM 30.2 °F 20.2 °F 26.6 °F 86% 29.97 in 10.0 mi West 12.7 mph - N/A Snow Light Snow
6:55 AM 30.6 °F 21.2 °F 27.3 °F 88% 29.99 in 7.0 mi WNW 11.5 mph 24.2 mph 0.00 in Snow Light Snow
7:20 AM 32.0 °F 21.6 °F 26.6 °F 80% 29.98 in 8.0 mi WNW 15.0 mph - N/A Snow Light Snow
7:55 AM 30.2 °F 19.8 °F 27.7 °F 90% 30.04 in 5.0 mi WNW 13.8 mph 25.3 mph 0.00 in Snow Light Snow
8:55 AM 30.6 °F 19.0 °F 28.0 °F 90% 30.09 in 4.0 mi WNW 17.3 mph - 0.00 in Snow Light Snow
9:55 AM 30.7 °F 21.4 °F 28.2 °F 90% 30.14 in 4.0 mi WNW 11.5 mph 23.0 mph 0.00 in Snow Light Snow
10:44 AM 32.0 °F 23.6 °F 28.4 °F 87% 30.12 in 6.0 mi WNW 10.4 mph - N/A Snow Light Snow Grains
10:55 AM 31.5 °F 22.3 °F 28.6 °F 89% 30.17 in 7.0 mi WNW 11.5 mph - 0.00 in Snow Light Snow Grains
11:55 AM 31.8 °F 23.3 °F 28.4 °F 87% 30.19 in 10.0 mi NW 10.4 mph - N/A Snow Light Snow Grains
12:55 PM 32.4 °F 23.0 °F 28.4 °F 85% 30.20 in 7.0 mi NNW 12.7 mph - 0.00 in Snow Light Snow Grains
1:55 PM 32.5 °F 24.2 °F 28.6 °F 85% 30.20 in 7.0 mi WNW 10.4 mph - 0.00 in Snow Light Snow Grains
2:55 PM 32.0 °F 22.5 °F 28.0 °F 85% 30.22 in 10.0 mi NW 12.7 mph - N/A   Overcast
3:55 PM 32.5 °F 26.2 °F 28.2 °F 84% 30.24 in 10.0 mi West 6.9 mph - N/A   Overcast
4:55 PM 31.8 °F 24.6 °F 28.2 °F 87% 30.25 in 10.0 mi WNW 8.1 mph - N/A   Overcast
5:55 PM 31.6 °F 22.6 °F 27.3 °F 84% 30.28 in 10.0 mi NW 11.5 mph - N/A   Overcast
6:03 PM 32.0 °F 23.6 °F 26.6 °F 80% 30.24 in 10.0 mi NW 10.4 mph - N/A Snow Light Snow
6:40 PM 32.0 °F 27.5 °F 26.6 °F 80% 30.24 in 10.0 mi WNW 4.6 mph - N/A   Overcast
6:55 PM 31.1 °F 23.1 °F 27.0 °F 85% 30.29 in 10.0 mi NW 9.2 mph - 0.00 in   Overcast
7:11 PM 32.0 °F 25.6 °F 26.6 °F 80% 30.26 in 10.0 mi West 6.9 mph - N/A Snow Light Snow
7:55 PM 30.7 °F 24.1 °F 26.6 °F 85% 30.32 in 10.0 mi WNW 6.9 mph - 0.00 in   Overcast
8:55 PM 30.6 °F 25.8 °F 26.4 °F 85% 30.31 in 10.0 mi WNW 4.6 mph - 0.00 in   Overcast
9:55 PM 30.2 °F 22.6 °F 25.9 °F 84% 30.32 in 7.0 mi NNW 8.1 mph - 0.00 in Snow Light Snow
10:55 PM 30.2 °F 25.4 °F 25.9 °F 84% 30.32 in 7.0 mi WNW 4.6 mph - N/A Snow Light Snow
11:01 PM 30.2 °F 26.7 °F 26.6 °F 86% 30.32 in 10.0 mi NW 3.5 mph - N/A   Overcast
11:13 PM 30.2 °F 26.7 °F 26.6 °F 86% 30.32 in 10.0 mi NW 3.5 mph - N/A   Overcast
11:18 PM 30.2 °F 25.4 °F 26.6 °F 86% 30.32 in 10.0 mi NW 4.6 mph - N/A   Overcast
11:31 PM 30.2 °F 26.7 °F 26.6 °F 86% 30.31 in 10.0 mi NNW 3.5 mph - N/A   Overcast
11:48 PM 30.2 °F 25.4 °F 26.6 °F 86% 30.30 in 10.0 mi NNW 4.6 mph - N/A   Overcast
11:55 PM 30.4 °F 26.9 °F 26.1 °F 84% 30.30 in 10.0 mi NNW 3.5 mph - 0.00 in   Overcast